Other Surface Observations
Issued by NWS

Home | Current Version | Previous Version | Text Only | Print | Product List | Glossary On
Versions: 1 2 3 4 5 6 7 8 9 10 11 12 13 14 15 16 17 18 19 20 21 22 23 24 25 26 27 28 29 30 31 32 33 34 35 36 37 38 39 40 41 42 43 44 45 46 47 48 49 50
000
SXUS52 KTAE 071518
OSOTAE
OSOTAE
North Florida/South Alabama/Southwest Georgia Weather Roundup
National Weather Service Tallahassee Florida
1100 AM EDT TUE JUL 07 2015

Note: "fair" indicates few or no clouds below 12,000 feet with no
significant weather and/or obstructions to visibility.

!FLZ017-115-028-034-025-071600
...North Florida...

CITY           SKY/WX    TMP DP  RH WIND       PRES   REMARKS
TALLAHASSEE    PTSUNNY   87  72  60 W5        30.18F HX  93
APALACHICOLA   SUNNY     90  72  55 N5        30.17F HX  97
PERRY          SUNNY     87  71  59 NW3       30.19S HX  92
CROSS CITY       N/A     86  73  65 NW7       30.17F HX  93
JACKSONVILLE   MOSUNNY   85  73  67 E3        30.17F HX  91
$$

!FLZ112-006-005-002-011-071600
...Florida Panhandle...

CITY           SKY/WX    TMP DP  RH WIND       PRES   REMARKS
MARIANNA       SUNNY     85  75  72 NW3       30.17F HX  93
BONIFAY        FAIR      86  74  67 CALM      30.19S HX  94
PANAMA CITY NW FAIR      86  72  62 CALM      30.17F HX  92
TYNDALL AFB    SUNNY     87  72  61 NW6       30.18S HX  93
TYND DRONE APT FAIR      87  76  69 W5        30.17F HX  96
DE FUNIAK SPR  FAIR      84  72  67 CALM      30.20S
EGLIN AFB      MOSUNNY   85  75  70 S3        30.17S HX  93
DESTIN         SUNNY     86  75  69 S6        30.18R HX  95
HURLBURT       MOSUNNY   86  75  69 SW8       30.16S HX  95
CRESTVIEW      MOSUNNY   87  74  64 W5        30.19S HX  95
PENSACOLA      MOSUNNY   87  74  64 CALM      30.16S HX  95
$$

!ALZ063-066-071600
...South Alabama...

CITY           SKY/WX    TMP DP  RH WIND       PRES   REMARKS
DOTHAN         SUNNY     85  73  67 N3        30.22F HX  91
OZARK CAIRNS   SUNNY     84  73  70 SW3       30.19S HX  91
FT RUCKER HELI SUNNY     85  72  65 VRB7      30.18S HX  91
RUCKER HELI 3  FAIR      85  73  66 NW3       30.20S HX  91
RUCKER HELI 2  FAIR      84  74  71 NW3       30.21R HX  91
FLORALA APT    MOSUNNY   85  72  65 W3        30.21R HX  91
ANDALUSIA      MOSUNNY   86  73  65 NW3       30.18S HX  93
TROY           SUNNY     86  73  65 VRB6      30.19S HX  93
EUFALA         FAIR      87  73  62 CALM      30.17F HX  94
MOBILE         MOSUNNY   86  74  67 S8        30.17S HX  94
$$

!GAZ120>161-071600
...Southwest and South Central Georgia...

CITY           SKY/WX    TMP DP  RH WIND       PRES   REMARKS
THOMASVILLE    FAIR      84  72  65 W5        30.20S
BAINBRIDGE     MOSUNNY   88  75  66 W3        30.19S HX  97
MOODY AFB      SUNNY     85  70  61 NW5       30.18S
VALDOSTA       MOSUNNY   86  72  62 N6        30.19S HX  92
MOULTRIE       SUNNY     82  72  69 CALM      30.20S
BLAKELY        SUNNY     86  73  66 CALM      30.19F HX  93
ALBANY         MOSUNNY   85  72  65 CALM      30.20F HX  91
TIFTON         PTSUNNY   83  68  61 CALM      30.19S
FITZGERALD     FAIR      84  70  62 CALM      30.21S
CORDELE        FAIR      85  73  66 NW5       30.20F HX  92
AMERICUS       FAIR      82  70  65 CALM      30.21F
HOMERVILLE     FAIR      86  73  66 CALM      30.19S HX  93
$$

!GMZ750-755-770-775-071600
...Coastal and Buoy Obs...

STATION/POSITION TIME  TEMP    WIND        PRES    VSBY  WAVE
                       AIR SEA DIR/SP/G                  HT/PER
                 (UTC) (F)     (DEG/KT/KT) (MB)    (MI)  (FT/S)
KEATON BEACH     1500   83     280/  5/  6 1022.1F
CEDAR KEY        1500   83     180/  3/  4 1022.2F
C TOWER          1500   81     360/  4/  5 1022.2R
APALACHICOLA BUO 1450   83 85   20/  6/ 10 1021.9F         1/10
PANAMA CITY BUOY 1450   83 85  360/  6/  6 1022.3R         1/ 6
MOBILE BUOY      1450   84 87  170/  6/  8 1021.6R         2/ 5
ORANGE BCH AL BU 1450   84 85  230/  6/  6 1020.8R         1/ 6
$$



USA.gov is the U.S. government's official web portal to all federal, state and local government web resources and services.